Year,Month,Day,Hour,Minute,Value (Times are PST for temperature in C)
2017,10,20,00,00,8.10
2017,10,20,00,01,8.10
2017,10,20,00,02,8.10
2017,10,20,00,03,8.10
2017,10,20,00,04,8.10
2017,10,20,00,05,8.10
2017,10,20,00,06,8.10
2017,10,20,00,07,8.10
2017,10,20,00,08,8.10
2017,10,20,00,09,8.10
2017,10,20,00,10,8.10
2017,10,20,00,11,8.10
2017,10,20,00,12,8.10
2017,10,20,00,13,8.10
2017,10,20,00,14,8.10
2017,10,20,00,15,8.10
2017,10,20,00,16,8.10
2017,10,20,00,17,8.10
2017,10,20,00,18,8.20
2017,10,20,00,19,8.20
2017,10,20,00,20,8.20
2017,10,20,00,21,8.20
2017,10,20,00,22,8.20
2017,10,20,00,23,8.20
2017,10,20,00,24,8.20
2017,10,20,00,25,8.20
2017,10,20,00,26,8.20
2017,10,20,00,27,8.30
2017,10,20,00,28,8.30
2017,10,20,00,29,8.30
2017,10,20,00,30,8.30
2017,10,20,00,31,8.30
2017,10,20,00,32,8.30
2017,10,20,00,33,8.30
2017,10,20,00,34,8.30
2017,10,20,00,35,8.40
2017,10,20,00,36,8.40
2017,10,20,00,37,8.40
2017,10,20,00,38,8.40
2017,10,20,00,39,8.40
2017,10,20,00,40,8.50
2017,10,20,00,41,8.50
2017,10,20,00,42,8.50
2017,10,20,00,43,8.60
2017,10,20,00,44,8.60
2017,10,20,00,45,8.60
2017,10,20,00,46,8.60
2017,10,20,00,47,8.70
2017,10,20,00,48,8.70
2017,10,20,00,49,8.70
2017,10,20,00,50,8.80
2017,10,20,00,51,8.80
2017,10,20,00,52,8.80
2017,10,20,00,53,8.90
2017,10,20,00,54,8.90
2017,10,20,00,55,8.90
2017,10,20,00,56,9.00
2017,10,20,00,57,9.00
2017,10,20,00,58,9.00
2017,10,20,00,59,9.00
2017,10,20,01,00,9.00
2017,10,20,01,01,9.10
2017,10,20,01,02,9.10
2017,10,20,01,03,9.10
2017,10,20,01,04,9.10
2017,10,20,01,05,9.10
2017,10,20,01,06,9.10
2017,10,20,01,07,9.10
2017,10,20,01,08,9.10
2017,10,20,01,09,9.10
2017,10,20,01,10,9.10
2017,10,20,01,11,9.10
2017,10,20,01,12,9.00
2017,10,20,01,13,9.00
2017,10,20,01,14,9.00
2017,10,20,01,15,9.00
2017,10,20,01,16,8.90
2017,10,20,01,17,8.90
2017,10,20,01,18,8.90
2017,10,20,01,19,8.90
2017,10,20,01,20,8.80
2017,10,20,01,21,8.80
2017,10,20,01,22,8.80
2017,10,20,01,23,8.70
2017,10,20,01,24,8.70
2017,10,20,01,25,8.70
2017,10,20,01,26,8.70
2017,10,20,01,27,8.70
2017,10,20,01,28,8.60
2017,10,20,01,29,8.60
2017,10,20,01,30,8.60
2017,10,20,01,31,8.60
2017,10,20,01,32,8.60
2017,10,20,01,33,8.60
2017,10,20,01,34,8.60
2017,10,20,01,35,8.50
2017,10,20,01,36,8.50
2017,10,20,01,37,8.50
2017,10,20,01,38,8.50
2017,10,20,01,39,8.50
2017,10,20,01,40,8.40
2017,10,20,01,41,8.40
2017,10,20,01,42,8.40
2017,10,20,01,43,8.40
2017,10,20,01,44,8.40
2017,10,20,01,45,8.40
2017,10,20,01,46,8.30
2017,10,20,01,47,8.30
2017,10,20,01,48,8.30
2017,10,20,01,49,8.30
2017,10,20,01,50,8.20
2017,10,20,01,51,8.20
2017,10,20,01,52,8.20
2017,10,20,01,53,8.20
2017,10,20,01,54,8.20
2017,10,20,01,55,8.20
2017,10,20,01,56,8.20
2017,10,20,01,57,8.20
2017,10,20,01,58,8.20
2017,10,20,01,59,8.20
2017,10,20,02,00,8.20
2017,10,20,02,01,8.20
2017,10,20,02,02,8.20
2017,10,20,02,03,8.20
2017,10,20,02,04,8.20
2017,10,20,02,05,8.20
2017,10,20,02,06,8.20
2017,10,20,02,07,8.20
2017,10,20,02,08,8.20
2017,10,20,02,09,8.20
2017,10,20,02,10,8.20
2017,10,20,02,11,8.20
2017,10,20,02,12,8.20
2017,10,20,02,13,8.20
2017,10,20,02,14,8.20
2017,10,20,02,15,8.20
2017,10,20,02,16,8.20
2017,10,20,02,17,8.20
2017,10,20,02,18,8.20
2017,10,20,02,19,8.20
2017,10,20,02,20,8.20
2017,10,20,02,21,8.20
2017,10,20,02,22,8.20
2017,10,20,02,23,8.30
2017,10,20,02,24,8.30
2017,10,20,02,25,8.30
2017,10,20,02,26,8.30
2017,10,20,02,27,8.30
2017,10,20,02,28,8.30
2017,10,20,02,29,8.30
2017,10,20,02,30,8.30
2017,10,20,02,31,8.30
2017,10,20,02,32,8.30
2017,10,20,02,33,8.30
2017,10,20,02,34,8.30
2017,10,20,02,35,8.30
2017,10,20,02,36,8.30
2017,10,20,02,37,8.30
2017,10,20,02,38,8.30
2017,10,20,02,39,8.40
2017,10,20,02,40,8.40
2017,10,20,02,41,8.40
2017,10,20,02,42,8.40
2017,10,20,02,43,8.50
2017,10,20,02,44,8.50
2017,10,20,02,45,8.50
2017,10,20,02,46,8.50
2017,10,20,02,47,8.60
2017,10,20,02,48,8.60
2017,10,20,02,49,8.60
2017,10,20,02,50,8.60
2017,10,20,02,51,8.60
2017,10,20,02,52,8.60
2017,10,20,02,53,8.60
2017,10,20,02,54,8.60
2017,10,20,02,55,8.60
2017,10,20,02,56,8.60
2017,10,20,02,57,8.60
2017,10,20,02,58,8.60
2017,10,20,02,59,8.60
2017,10,20,03,00,8.60
2017,10,20,03,01,8.60
2017,10,20,03,02,8.60
2017,10,20,03,03,8.60
2017,10,20,03,04,8.60
2017,10,20,03,05,8.60
2017,10,20,03,06,8.60
2017,10,20,03,07,8.60
2017,10,20,03,08,8.60
2017,10,20,03,09,8.50
2017,10,20,03,10,8.50
2017,10,20,03,11,8.50
2017,10,20,03,12,8.50
2017,10,20,03,13,8.50
2017,10,20,03,14,8.40
2017,10,20,03,15,8.40
2017,10,20,03,16,8.40
2017,10,20,03,17,8.40
2017,10,20,03,18,8.40
2017,10,20,03,19,8.40
2017,10,20,03,20,8.40
2017,10,20,03,21,8.40
2017,10,20,03,22,8.40
2017,10,20,03,23,8.40
2017,10,20,03,24,8.50
2017,10,20,03,25,8.50
2017,10,20,03,26,8.60
2017,10,20,03,27,8.60
2017,10,20,03,28,8.60
2017,10,20,03,29,8.60
2017,10,20,03,30,8.60
2017,10,20,03,31,8.60
2017,10,20,03,32,8.60
2017,10,20,03,33,8.60
2017,10,20,03,34,8.60
2017,10,20,03,35,8.50
2017,10,20,03,36,8.50
2017,10,20,03,37,8.40
2017,10,20,03,38,8.40
2017,10,20,03,39,8.40
2017,10,20,03,40,8.40
2017,10,20,03,41,8.30
2017,10,20,03,42,8.30
2017,10,20,03,43,8.30
2017,10,20,03,44,8.30
2017,10,20,03,45,8.20
2017,10,20,03,46,8.20
2017,10,20,03,47,8.20
2017,10,20,03,48,8.10
2017,10,20,03,49,8.10
2017,10,20,03,50,8.10
2017,10,20,03,51,8.10
2017,10,20,03,52,8.00
2017,10,20,03,53,8.00
2017,10,20,03,54,8.00
2017,10,20,03,55,8.00
2017,10,20,03,56,7.90
2017,10,20,03,57,7.90
2017,10,20,03,58,7.90
2017,10,20,03,59,7.90
2017,10,20,04,00,7.90
2017,10,20,04,01,7.90
2017,10,20,04,02,7.90
2017,10,20,04,03,7.90
2017,10,20,04,04,7.90
2017,10,20,04,05,7.90
2017,10,20,04,06,7.90
2017,10,20,04,07,7.90
2017,10,20,04,08,7.90
2017,10,20,04,09,7.80
2017,10,20,04,10,7.80
2017,10,20,04,11,7.80
2017,10,20,04,12,7.80
2017,10,20,04,13,7.80
2017,10,20,04,14,7.80
2017,10,20,04,15,7.80
2017,10,20,04,16,7.80
2017,10,20,04,17,7.80
2017,10,20,04,18,7.80
2017,10,20,04,19,7.80
2017,10,20,04,20,7.80
2017,10,20,04,21,7.80
2017,10,20,04,22,7.70
2017,10,20,04,23,7.70
2017,10,20,04,24,7.70
2017,10,20,04,25,7.60
2017,10,20,04,26,7.60
2017,10,20,04,27,7.60
2017,10,20,04,28,7.60
2017,10,20,04,29,7.50
2017,10,20,04,30,7.50
2017,10,20,04,31,7.40
2017,10,20,04,32,7.40
2017,10,20,04,33,7.40
2017,10,20,04,34,7.30
2017,10,20,04,35,7.30
2017,10,20,04,36,7.30
2017,10,20,04,37,7.30
2017,10,20,04,38,7.20
2017,10,20,04,39,7.20
2017,10,20,04,40,7.20
2017,10,20,04,41,7.20
2017,10,20,04,42,7.20
2017,10,20,04,43,7.10
2017,10,20,04,44,7.10
2017,10,20,04,45,7.10
2017,10,20,04,46,7.10
2017,10,20,04,47,7.00
2017,10,20,04,48,7.00
2017,10,20,04,49,7.00
2017,10,20,04,50,6.90
2017,10,20,04,51,6.90
2017,10,20,04,52,6.90
2017,10,20,04,53,6.90
2017,10,20,04,54,6.90
2017,10,20,04,55,6.90
2017,10,20,04,56,6.90
2017,10,20,04,57,6.90
2017,10,20,04,58,6.80
2017,10,20,04,59,6.80
2017,10,20,05,00,6.80
2017,10,20,05,01,6.80
2017,10,20,05,02,6.80
2017,10,20,05,03,6.80
2017,10,20,05,04,6.80
2017,10,20,05,05,6.80
2017,10,20,05,06,6.80
2017,10,20,05,07,6.80
2017,10,20,05,08,6.80
2017,10,20,05,09,6.80
2017,10,20,05,10,6.80
2017,10,20,05,11,6.70
2017,10,20,05,12,6.80
2017,10,20,05,13,6.70
2017,10,20,05,14,6.70
2017,10,20,05,15,6.70
2017,10,20,05,16,6.80
2017,10,20,05,17,6.70
2017,10,20,05,18,6.70
2017,10,20,05,19,6.70
2017,10,20,05,20,6.70
2017,10,20,05,21,6.70
2017,10,20,05,22,6.70
2017,10,20,05,23,6.70
2017,10,20,05,24,6.70
2017,10,20,05,25,6.70
2017,10,20,05,26,6.70
2017,10,20,05,27,6.70
2017,10,20,05,28,6.70
2017,10,20,05,29,6.70
2017,10,20,05,30,6.70
2017,10,20,05,31,6.70
2017,10,20,05,32,6.70
2017,10,20,05,33,6.70
2017,10,20,05,34,6.70
2017,10,20,05,35,6.70
2017,10,20,05,36,6.80
2017,10,20,05,37,6.80
2017,10,20,05,38,6.80
2017,10,20,05,39,6.80
2017,10,20,05,40,6.80
2017,10,20,05,41,6.80
2017,10,20,05,42,6.80
2017,10,20,05,43,6.80
2017,10,20,05,44,6.70
2017,10,20,05,45,6.70
2017,10,20,05,46,6.70
2017,10,20,05,47,6.70
2017,10,20,05,48,6.70
2017,10,20,05,49,6.70
2017,10,20,05,50,6.70
2017,10,20,05,51,6.70
2017,10,20,05,52,6.70
2017,10,20,05,53,6.70
2017,10,20,05,54,6.70
2017,10,20,05,55,6.70
2017,10,20,05,56,6.70
2017,10,20,05,57,6.70
2017,10,20,05,58,6.70
2017,10,20,05,59,6.70
2017,10,20,06,00,6.70
2017,10,20,06,01,6.70
2017,10,20,06,02,6.70
2017,10,20,06,03,6.70
2017,10,20,06,04,6.70
2017,10,20,06,05,6.70
2017,10,20,06,06,6.70
2017,10,20,06,07,6.70
2017,10,20,06,08,6.70
2017,10,20,06,09,6.80
2017,10,20,06,10,6.80
2017,10,20,06,11,6.80
2017,10,20,06,12,6.80
2017,10,20,06,13,6.80
2017,10,20,06,14,6.80
2017,10,20,06,15,6.80
2017,10,20,06,16,6.80
2017,10,20,06,17,6.80
2017,10,20,06,18,6.80
2017,10,20,06,19,6.80
2017,10,20,06,20,6.80
2017,10,20,06,21,6.80
2017,10,20,06,22,6.70
2017,10,20,06,23,6.70
2017,10,20,06,24,6.70
2017,10,20,06,25,6.70
2017,10,20,06,26,6.70
2017,10,20,06,27,6.70
2017,10,20,06,28,6.70
2017,10,20,06,29,6.70
2017,10,20,06,30,6.70
2017,10,20,06,31,6.70
2017,10,20,08,12,8.20
2017,10,20,08,13,8.20
2017,10,20,08,14,8.20
2017,10,20,08,15,8.20
2017,10,20,08,16,8.20
2017,10,20,08,17,8.20
2017,10,20,08,18,8.20
2017,10,20,08,19,8.20
2017,10,20,08,20,8.20
2017,10,20,08,21,8.20
2017,10,20,08,22,8.30
2017,10,20,08,23,8.30
2017,10,20,08,24,8.30
2017,10,20,08,25,8.30
2017,10,20,08,26,8.30
2017,10,20,08,27,8.30
2017,10,20,08,28,8.30
2017,10,20,08,29,8.30
2017,10,20,08,30,8.40
2017,10,20,08,31,8.40
2017,10,20,08,32,8.40
2017,10,20,08,33,8.40
2017,10,20,08,34,8.40
2017,10,20,08,35,8.40
2017,10,20,08,36,8.40
2017,10,20,08,37,8.40
2017,10,20,08,38,8.40
2017,10,20,08,39,8.40
2017,10,20,08,40,8.40
2017,10,20,08,41,8.40
2017,10,20,08,42,8.40
2017,10,20,08,43,8.40
2017,10,20,08,44,8.50
2017,10,20,08,45,8.50
2017,10,20,08,46,8.50
2017,10,20,08,47,8.50
2017,10,20,08,48,8.50
2017,10,20,08,49,8.50
2017,10,20,08,50,8.50
2017,10,20,08,51,8.50
2017,10,20,08,52,8.50
2017,10,20,08,53,8.50
2017,10,20,08,54,8.50
2017,10,20,08,55,8.60
2017,10,20,08,56,8.60
2017,10,20,08,57,8.60
2017,10,20,08,58,8.60
2017,10,20,08,59,8.60
2017,10,20,09,00,8.60
2017,10,20,09,01,8.60
2017,10,20,09,02,8.60
2017,10,20,09,03,8.70
2017,10,20,09,04,8.70
2017,10,20,09,05,8.70
2017,10,20,09,06,8.70
2017,10,20,09,07,8.80
2017,10,20,09,08,8.80
2017,10,20,09,09,8.80
2017,10,20,09,10,8.80
2017,10,20,09,11,8.80
2017,10,20,09,12,8.80
2017,10,20,09,13,8.80
2017,10,20,09,14,8.80
2017,10,20,09,15,8.90
2017,10,20,09,16,8.90
2017,10,20,09,17,8.90
2017,10,20,09,18,8.90
2017,10,20,09,19,8.90
2017,10,20,09,20,8.90
2017,10,20,09,21,8.90
2017,10,20,09,22,8.90
2017,10,20,09,23,8.90
2017,10,20,09,24,8.90
2017,10,20,09,25,8.90
2017,10,20,09,26,8.90
2017,10,20,09,27,8.90
2017,10,20,09,28,8.90
2017,10,20,09,29,8.90
2017,10,20,09,30,9.00
2017,10,20,09,31,9.00
2017,10,20,09,32,9.00
2017,10,20,09,33,9.00
2017,10,20,09,34,9.00
2017,10,20,09,35,9.00
2017,10,20,09,36,9.00
2017,10,20,09,37,9.00
2017,10,20,09,38,9.00
2017,10,20,09,39,9.00
2017,10,20,09,40,9.00
2017,10,20,09,41,9.10
2017,10,20,09,42,9.10
2017,10,20,09,43,9.10
2017,10,20,09,44,9.10
2017,10,20,09,45,9.10
2017,10,20,09,46,9.10
2017,10,20,09,47,9.10
2017,10,20,09,48,9.10
2017,10,20,09,49,9.10
2017,10,20,09,50,9.10
2017,10,20,09,51,9.10
2017,10,20,09,52,9.10
2017,10,20,09,53,9.10
2017,10,20,09,54,9.10
2017,10,20,09,55,9.00
2017,10,20,09,56,9.00
2017,10,20,09,57,8.90
2017,10,20,09,58,8.90
2017,10,20,09,59,8.90
2017,10,20,10,00,8.80
2017,10,20,10,01,8.80
2017,10,20,10,02,8.80
2017,10,20,10,03,8.70
2017,10,20,10,04,8.70
2017,10,20,10,05,8.70
2017,10,20,10,06,8.60
2017,10,20,10,07,8.60
2017,10,20,10,08,8.60
2017,10,20,10,09,8.60
2017,10,20,10,10,8.50
2017,10,20,10,11,8.50
2017,10,20,10,12,8.50
2017,10,20,10,13,8.40
2017,10,20,10,14,8.40
2017,10,20,10,15,8.40
2017,10,20,10,16,8.40
2017,10,20,10,17,8.40
2017,10,20,10,18,8.40
2017,10,20,10,19,8.40
2017,10,20,10,20,8.40
2017,10,20,10,21,8.40
2017,10,20,10,22,8.40
2017,10,20,10,23,8.40
2017,10,20,10,24,8.40
2017,10,20,10,25,8.40
2017,10,20,10,26,8.40
2017,10,20,10,27,8.40
2017,10,20,10,28,8.40
2017,10,20,10,29,8.40
2017,10,20,10,30,8.40
2017,10,20,10,31,8.40
2017,10,20,10,32,8.40
2017,10,20,10,33,8.40
2017,10,20,10,34,8.40
2017,10,20,10,35,8.40
2017,10,20,10,36,8.40
2017,10,20,10,37,8.40
2017,10,20,10,38,8.40
2017,10,20,10,39,8.40
2017,10,20,10,40,8.40
2017,10,20,10,41,8.40
2017,10,20,10,42,8.40
2017,10,20,10,43,8.40
2017,10,20,10,44,8.40
2017,10,20,10,45,8.40
2017,10,20,10,46,8.40
2017,10,20,10,47,8.40
2017,10,20,10,48,8.40
2017,10,20,10,49,8.40
2017,10,20,10,50,8.50
2017,10,20,10,51,8.60
2017,10,20,10,52,8.60
2017,10,20,10,53,8.70
2017,10,20,10,54,8.70
2017,10,20,10,55,8.70
2017,10,20,10,56,8.70
2017,10,20,10,57,8.80
2017,10,20,10,58,8.90
2017,10,20,10,59,8.90
2017,10,20,11,00,9.00
2017,10,20,11,01,9.10
2017,10,20,11,02,9.10
2017,10,20,11,03,9.10
2017,10,20,11,04,9.20
2017,10,20,11,05,9.30
2017,10,20,11,06,9.40
2017,10,20,11,07,9.50
2017,10,20,11,08,9.50
2017,10,20,11,09,9.60
2017,10,20,11,10,9.60
2017,10,20,11,11,9.70
2017,10,20,11,12,9.80
2017,10,20,11,13,9.90
2017,10,20,11,14,9.90
2017,10,20,11,15,10.00
2017,10,20,11,16,10.10
2017,10,20,11,17,10.20
2017,10,20,11,18,10.30
2017,10,20,11,19,10.40
2017,10,20,11,20,10.50
2017,10,20,11,21,10.60
2017,10,20,11,22,10.60
2017,10,20,11,23,10.50
2017,10,20,11,24,10.50
2017,10,20,11,25,10.50
2017,10,20,11,26,10.50
2017,10,20,11,27,10.50
2017,10,20,11,28,10.40
2017,10,20,11,29,10.40
2017,10,20,11,30,10.40
2017,10,20,11,31,10.30
2017,10,20,11,32,10.40
2017,10,20,11,33,10.40
2017,10,20,11,34,10.40
2017,10,20,11,35,10.30
2017,10,20,11,36,10.30
2017,10,20,11,37,10.40
2017,10,20,11,38,10.30
2017,10,20,11,39,10.30
2017,10,20,11,40,10.30
2017,10,20,11,41,10.20
2017,10,20,11,42,10.20
2017,10,20,11,43,10.20
2017,10,20,11,44,10.20
2017,10,20,11,45,10.20
2017,10,20,11,46,10.20
2017,10,20,11,47,10.20
2017,10,20,11,48,10.20
2017,10,20,11,49,10.30
2017,10,20,11,50,10.30
2017,10,20,11,51,10.40
2017,10,20,11,52,10.50
2017,10,20,11,53,10.50
2017,10,20,11,54,10.50
2017,10,20,11,55,10.50
2017,10,20,11,56,10.60
2017,10,20,11,57,10.70
2017,10,20,11,58,10.80
2017,10,20,11,59,10.70
2017,10,20,12,00,10.70
2017,10,20,12,01,10.70
2017,10,20,12,02,10.70
2017,10,20,12,03,10.80
2017,10,20,12,04,10.90
2017,10,20,12,05,11.00
2017,10,20,12,06,11.10
2017,10,20,12,07,11.20
2017,10,20,12,08,11.20
2017,10,20,12,09,11.20
2017,10,20,12,10,11.20
2017,10,20,12,11,11.20
2017,10,20,12,12,11.20
2017,10,20,12,13,11.30
2017,10,20,12,14,11.30
2017,10,20,12,15,11.40
2017,10,20,12,16,11.50
2017,10,20,12,17,11.50
2017,10,20,12,18,11.60
2017,10,20,12,19,11.70
2017,10,20,12,20,11.70
2017,10,20,12,21,11.80
2017,10,20,12,22,11.90
2017,10,20,12,23,11.90
2017,10,20,12,24,11.90
2017,10,20,12,25,11.90
2017,10,20,12,26,11.90
2017,10,20,12,27,11.90
2017,10,20,12,28,11.90
2017,10,20,12,29,11.90
2017,10,20,12,30,11.90
2017,10,20,12,31,11.90
2017,10,20,12,32,11.90
2017,10,20,12,33,11.90
2017,10,20,12,34,12.00
2017,10,20,12,35,12.00
2017,10,20,12,36,12.10
2017,10,20,12,37,12.10
2017,10,20,12,38,12.10
2017,10,20,12,39,12.20
2017,10,20,12,40,12.20
2017,10,20,12,41,12.30
2017,10,20,12,42,12.30
2017,10,20,12,43,12.20
2017,10,20,12,44,12.20
2017,10,20,12,45,12.20
2017,10,20,12,46,12.20
2017,10,20,12,47,12.20
2017,10,20,12,48,12.20
2017,10,20,12,49,12.10
2017,10,20,12,50,12.10
2017,10,20,12,51,12.00
2017,10,20,12,52,12.00
2017,10,20,12,53,12.00
2017,10,20,12,54,11.90
2017,10,20,12,55,11.90
2017,10,20,12,56,11.90
2017,10,20,12,57,11.90
2017,10,20,12,58,11.80
2017,10,20,12,59,11.80
2017,10,20,13,00,11.90
2017,10,20,13,01,11.90
2017,10,20,13,02,11.90
2017,10,20,13,03,11.90
2017,10,20,13,04,11.80
2017,10,20,13,05,11.80
2017,10,20,13,06,11.80
2017,10,20,13,07,11.70
2017,10,20,13,08,11.70
2017,10,20,13,09,11.70
2017,10,20,13,10,11.70
2017,10,20,13,11,11.70
2017,10,20,13,12,11.70
2017,10,20,13,13,11.70
2017,10,20,13,14,11.70
2017,10,20,13,15,11.80
2017,10,20,13,16,11.80
2017,10,20,13,17,11.80
2017,10,20,13,18,11.80
2017,10,20,13,19,11.80
2017,10,20,13,20,11.80
2017,10,20,13,21,11.90
2017,10,20,13,22,12.00
2017,10,20,13,23,12.10
2017,10,20,13,24,12.10
2017,10,20,13,25,12.20
2017,10,20,13,26,12.30
2017,10,20,13,27,12.30
2017,10,20,13,28,12.40
2017,10,20,13,29,12.50
2017,10,20,13,30,12.50
2017,10,20,13,31,12.60
2017,10,20,13,32,12.50
2017,10,20,13,33,12.50
2017,10,20,13,34,12.50
2017,10,20,13,35,12.60
2017,10,20,13,36,12.60
2017,10,20,13,37,12.60
2017,10,20,13,38,12.60
2017,10,20,13,39,12.50
2017,10,20,13,40,12.40
2017,10,20,13,41,12.40
2017,10,20,13,42,12.40
2017,10,20,13,43,12.40
2017,10,20,13,44,12.40
2017,10,20,13,45,12.40
2017,10,20,13,46,12.40
2017,10,20,13,47,12.50
2017,10,20,13,48,12.50
2017,10,20,13,49,12.50
2017,10,20,13,50,12.50
2017,10,20,13,51,12.60
2017,10,20,13,52,12.60
2017,10,20,13,53,12.60
2017,10,20,13,54,12.50
2017,10,20,13,55,12.50
2017,10,20,13,56,12.50
2017,10,20,13,57,12.50
2017,10,20,13,58,12.50
2017,10,20,13,59,12.50
2017,10,20,14,00,12.50
2017,10,20,14,01,12.50
2017,10,20,14,02,12.50
2017,10,20,14,03,12.40
2017,10,20,14,04,12.40
2017,10,20,14,05,12.40
2017,10,20,14,06,12.40
2017,10,20,14,07,12.40
2017,10,20,14,08,12.40
2017,10,20,14,09,12.40
2017,10,20,14,10,12.40
2017,10,20,14,11,12.40
2017,10,20,14,12,12.40
2017,10,20,14,13,12.50
2017,10,20,14,14,12.50
2017,10,20,14,15,12.40
2017,10,20,14,16,12.40
2017,10,20,14,17,12.40
2017,10,20,14,18,12.40
2017,10,20,14,19,12.40
2017,10,20,14,20,12.40
2017,10,20,14,21,12.40
2017,10,20,14,22,12.30
2017,10,20,14,23,12.40
2017,10,20,14,24,12.40
2017,10,20,14,25,12.50
2017,10,20,14,26,12.50
2017,10,20,14,27,12.50
2017,10,20,14,28,12.50
2017,10,20,14,29,12.60
2017,10,20,14,30,12.60
2017,10,20,14,31,12.60
2017,10,20,14,32,12.60
2017,10,20,14,33,12.60
2017,10,20,14,34,12.70
2017,10,20,14,35,12.70
2017,10,20,14,36,12.70
2017,10,20,14,37,12.70
2017,10,20,14,38,12.70
2017,10,20,14,39,12.70
2017,10,20,14,40,12.70
2017,10,20,14,41,12.70
2017,10,20,14,42,12.60
2017,10,20,14,43,12.60
2017,10,20,14,44,12.60
2017,10,20,14,45,12.60
2017,10,20,14,46,12.60
2017,10,20,14,47,12.60
2017,10,20,14,48,12.70
2017,10,20,14,49,12.70
2017,10,20,14,50,12.70
2017,10,20,14,51,12.70
2017,10,20,14,52,12.70
2017,10,20,14,53,12.70
2017,10,20,14,54,12.70
2017,10,20,14,55,12.70
2017,10,20,14,56,12.70
2017,10,20,14,57,12.70
2017,10,20,14,58,12.70
2017,10,20,14,59,12.70
2017,10,20,15,00,12.60
2017,10,20,15,01,12.60
2017,10,20,15,02,12.60
2017,10,20,15,03,12.60
2017,10,20,15,04,12.60
2017,10,20,15,05,12.60
2017,10,20,15,06,12.60
2017,10,20,15,07,12.50
2017,10,20,15,08,12.50
2017,10,20,15,09,12.50
2017,10,20,15,10,12.40
2017,10,20,15,11,12.40
2017,10,20,15,12,12.30
2017,10,20,15,13,12.30
2017,10,20,15,14,12.30
2017,10,20,15,15,12.30
2017,10,20,15,16,12.30
2017,10,20,15,17,12.30
2017,10,20,15,18,12.30
2017,10,20,15,19,12.40
2017,10,20,15,20,12.40
2017,10,20,15,21,12.40
2017,10,20,15,22,12.50
2017,10,20,15,23,12.50
2017,10,20,15,24,12.60
2017,10,20,15,25,12.70
2017,10,20,15,26,12.70
2017,10,20,15,27,12.80
2017,10,20,15,28,12.90
2017,10,20,15,29,12.90
2017,10,20,15,30,13.00
2017,10,20,15,31,13.10
2017,10,20,15,32,13.10
2017,10,20,15,33,13.10
2017,10,20,15,34,13.10
2017,10,20,15,35,13.10
2017,10,20,15,36,13.10
2017,10,20,15,37,13.10
2017,10,20,15,38,13.00
2017,10,20,15,39,13.00
2017,10,20,15,40,12.90
2017,10,20,15,41,12.90
2017,10,20,15,42,12.80
2017,10,20,15,43,12.80
2017,10,20,15,44,12.80
2017,10,20,15,45,12.70
2017,10,20,15,46,12.70
2017,10,20,15,47,12.60
2017,10,20,15,48,12.60
2017,10,20,15,49,12.50
2017,10,20,15,50,12.40
2017,10,20,15,51,12.40
2017,10,20,15,52,12.30
2017,10,20,15,53,12.30
2017,10,20,15,54,12.30
2017,10,20,15,55,12.30
2017,10,20,15,56,12.20
2017,10,20,15,57,12.20
2017,10,20,15,58,12.20
2017,10,20,15,59,12.20
2017,10,20,16,00,12.10
2017,10,20,16,01,12.10
2017,10,20,16,02,12.10
2017,10,20,16,03,12.10
2017,10,20,16,04,12.10
2017,10,20,16,05,12.10
2017,10,20,16,06,12.10
2017,10,20,16,07,12.10
2017,10,20,16,08,12.10
2017,10,20,16,09,12.10
2017,10,20,16,10,12.10
2017,10,20,16,11,12.10
2017,10,20,16,12,12.20
2017,10,20,16,13,12.20
2017,10,20,16,14,12.20
2017,10,20,16,15,12.20
2017,10,20,16,16,12.30
2017,10,20,16,17,12.30
2017,10,20,16,18,12.40
2017,10,20,16,19,12.40
2017,10,20,16,20,12.40
2017,10,20,16,21,12.40
2017,10,20,16,22,12.50
2017,10,20,16,23,12.50
2017,10,20,16,24,12.50
2017,10,20,16,25,12.50
2017,10,20,16,26,12.50
2017,10,20,16,27,12.50
2017,10,20,16,28,12.50
2017,10,20,16,29,12.50
2017,10,20,16,30,12.50
2017,10,20,16,31,12.50
2017,10,20,16,32,12.50
2017,10,20,16,33,12.40
2017,10,20,16,34,12.40
2017,10,20,16,35,12.40
2017,10,20,16,36,12.30
2017,10,20,16,37,12.30
2017,10,20,16,38,12.30
2017,10,20,16,39,12.30
2017,10,20,16,40,12.30
2017,10,20,16,41,12.30
2017,10,20,16,42,12.20
2017,10,20,16,43,12.20
2017,10,20,16,44,12.20
2017,10,20,16,45,12.10
2017,10,20,16,46,12.10
2017,10,20,16,47,12.10
2017,10,20,16,48,12.00
2017,10,20,16,49,11.90
2017,10,20,16,50,11.90
2017,10,20,16,51,11.90
2017,10,20,16,52,11.80
2017,10,20,16,53,11.80
2017,10,20,16,54,11.80
2017,10,20,16,55,11.80
2017,10,20,16,56,11.80
2017,10,20,16,57,11.70
2017,10,20,16,58,11.60
2017,10,20,16,59,11.60
2017,10,20,17,00,11.50
2017,10,20,17,01,11.50
2017,10,20,17,02,11.40
2017,10,20,17,03,11.40
2017,10,20,17,04,11.30
2017,10,20,17,05,11.20
2017,10,20,17,06,11.10
2017,10,20,17,07,11.10
2017,10,20,17,08,11.00
2017,10,20,17,09,10.90
2017,10,20,17,10,10.90
2017,10,20,17,11,10.80
2017,10,20,17,12,10.80
2017,10,20,17,13,10.80
2017,10,20,17,14,10.70
2017,10,20,17,15,10.70
2017,10,20,17,16,10.70
2017,10,20,17,17,10.70
2017,10,20,17,18,10.70
2017,10,20,17,19,10.70
2017,10,20,17,20,10.70
2017,10,20,17,21,10.60
2017,10,20,17,22,10.60
2017,10,20,17,23,10.70
2017,10,20,17,24,10.70
2017,10,20,17,25,10.60
2017,10,20,17,26,10.60
2017,10,20,17,27,10.60
2017,10,20,17,28,10.70
2017,10,20,17,29,10.70
2017,10,20,17,30,10.70
2017,10,20,17,31,10.70
2017,10,20,17,32,10.70
2017,10,20,17,33,10.70
2017,10,20,17,34,10.60
2017,10,20,17,35,10.60
2017,10,20,17,36,10.60
2017,10,20,17,37,10.60
2017,10,20,17,38,10.60
2017,10,20,17,39,10.50
2017,10,20,17,40,10.50
2017,10,20,17,41,10.50
2017,10,20,17,42,10.50
2017,10,20,17,43,10.50
2017,10,20,17,44,10.50
2017,10,20,17,45,10.50
2017,10,20,17,46,10.40
2017,10,20,17,47,10.40
2017,10,20,17,48,10.30
2017,10,20,17,49,10.30
2017,10,20,17,50,10.30
2017,10,20,17,51,10.30
2017,10,20,17,52,10.20
2017,10,20,17,53,10.20
2017,10,20,17,54,10.10
2017,10,20,17,55,10.10
2017,10,20,17,56,10.10
2017,10,20,17,57,10.10
2017,10,20,17,58,10.10
2017,10,20,17,59,10.00
2017,10,20,18,00,10.00
2017,10,20,18,01,9.90
2017,10,20,18,02,9.80
2017,10,20,18,03,9.80
2017,10,20,18,04,9.80
2017,10,20,18,05,9.80
2017,10,20,18,06,9.80
2017,10,20,18,07,9.80
2017,10,20,18,08,9.70
2017,10,20,18,09,9.70
2017,10,20,18,10,9.70
2017,10,20,18,11,9.60
2017,10,20,18,12,9.60
2017,10,20,18,13,9.60
2017,10,20,18,14,9.50
2017,10,20,18,15,9.50
2017,10,20,18,16,9.40
2017,10,20,18,17,9.40
2017,10,20,18,18,9.30
2017,10,20,18,19,9.30
2017,10,20,18,20,9.20
2017,10,20,18,21,9.20
2017,10,20,18,22,9.20
2017,10,20,18,23,9.10
2017,10,20,18,24,9.00
2017,10,20,18,25,8.90
2017,10,20,18,26,8.80
2017,10,20,18,27,8.80
2017,10,20,18,28,8.70
2017,10,20,18,29,8.60
2017,10,20,18,30,8.60
2017,10,20,18,31,8.50
2017,10,20,18,32,8.40
2017,10,20,18,33,8.40
2017,10,20,18,34,8.30
2017,10,20,18,35,8.30
2017,10,20,18,36,8.20
2017,10,20,18,37,8.20
2017,10,20,18,38,8.10
2017,10,20,18,39,8.10
2017,10,20,18,40,8.00
2017,10,20,18,41,8.00
2017,10,20,18,42,7.90
2017,10,20,18,43,7.90
2017,10,20,18,44,7.80
2017,10,20,18,45,7.80
2017,10,20,18,46,7.80
2017,10,20,18,47,7.70
2017,10,20,18,48,7.70
2017,10,20,18,49,7.70
2017,10,20,18,50,7.70
2017,10,20,18,51,7.60
2017,10,20,18,52,7.60
2017,10,20,18,53,7.50
2017,10,20,18,54,7.50
2017,10,20,18,55,7.40
2017,10,20,18,56,7.40
2017,10,20,18,57,7.40
2017,10,20,18,58,7.40
2017,10,20,18,59,7.30
2017,10,20,19,00,7.30
2017,10,20,19,01,7.30
2017,10,20,19,02,7.20
2017,10,20,19,03,7.20
2017,10,20,19,04,7.20
2017,10,20,19,05,7.20
2017,10,20,19,06,7.20
2017,10,20,19,07,7.10
2017,10,20,19,08,7.10
2017,10,20,19,09,7.10
2017,10,20,19,10,7.00
2017,10,20,19,11,7.00
2017,10,20,19,12,6.90
2017,10,20,19,13,6.90
2017,10,20,19,14,6.90
2017,10,20,19,15,6.90
2017,10,20,19,16,6.80
2017,10,20,19,17,6.80
2017,10,20,19,18,6.80
2017,10,20,19,19,6.80
2017,10,20,19,20,6.70
2017,10,20,19,21,6.70
2017,10,20,19,22,6.70
2017,10,20,19,23,6.60
2017,10,20,19,24,6.60
2017,10,20,19,25,6.60
2017,10,20,19,26,6.50
2017,10,20,19,27,6.50
2017,10,20,19,28,6.50